LPE2464 SABE-SPJC

Flight info

Callsign LPE2464
Flight time 4h 22m
Altitude 36000
Route BIVAM4B BIVAM UW8 ERE UT680 TUC UL550 SCO ESEDI3
Aircraft A320/M-SDE3FGHIRWY/LB1

Departure

Time 2026-05-05 18:56
Airport Aeroparque Jorge Newbery (SABE)

Arrival

Time 2026-05-05 23:19
Airport Jorge Chávez International Airport (SPJC)
Time Latitude Longitude Altitude Speed Heading
2026-05-05 18:28 -34.55658 -58.41533 29 ft 0 kts
2026-05-05 18:48 -34.55662 -58.41534 30 ft 3 kts
2026-05-05 18:48 -34.55689 -58.41536 26 ft 4 kts 348°
2026-05-05 18:48 -34.55707 -58.41526 30 ft 3 kts 317°
2026-05-05 18:49 -34.55724 -58.41501 30 ft 4 kts 297°
2026-05-05 18:49 -34.55731 -58.41485 30 ft 0 kts 297°
2026-05-05 18:51 -34.55728 -58.41491 29 ft 3 kts 297°
2026-05-05 18:52 -34.55719 -58.41529 28 ft 7 kts 266°
2026-05-05 18:52 -34.55760 -58.41579 27 ft 9 kts 213°
2026-05-05 18:52 -34.55785 -58.41632 25 ft 7 kts 281°
2026-05-05 18:52 -34.55756 -58.41704 28 ft 12 kts 296°
2026-05-05 18:53 -34.55709 -58.41804 27 ft 14 kts 304°
2026-05-05 18:53 -34.55652 -58.41906 30 ft 15 kts 304°
2026-05-05 18:53 -34.55592 -58.42016 31 ft 16 kts 303°
2026-05-05 18:53 -34.55530 -58.42116 29 ft 10 kts 307°
2026-05-05 18:54 -34.55490 -58.42182 26 ft 9 kts 307°
2026-05-05 18:54 -34.55447 -58.42250 27 ft 11 kts 307°
2026-05-05 18:54 -34.55395 -58.42334 27 ft 13 kts 307°
2026-05-05 18:54 -34.55363 -58.42432 25 ft 12 kts 279°
2026-05-05 18:55 -34.55390 -58.42504 26 ft 8 kts 209°
2026-05-05 18:55 -34.55421 -58.42480 26 ft 0 kts 122°
2026-05-05 18:55 -34.55423 -58.42475 30 ft 10 kts 122°
2026-05-05 18:55 -34.55620 -58.42123 27 ft 87 kts 124°
2026-05-05 18:56 -34.56078 -58.41303 26 ft 145 kts 124°
2026-05-05 18:56 -34.56714 -58.40167 324 ft 167 kts 122°
2026-05-05 18:56 -34.57331 -58.38993 1172 ft 164 kts 118°
2026-05-05 18:56 -34.57773 -58.37725 1916 ft 167 kts 104°
2026-05-05 18:57 -34.57957 -58.36263 2327 ft 185 kts 89°
2026-05-05 18:57 -34.57736 -58.34675 2564 ft 204 kts 63°
2026-05-05 18:57 -34.56766 -58.33363 2776 ft 221 kts 25°
2026-05-05 18:57 -34.55213 -58.33075 3130 ft 240 kts 346°
2026-05-05 18:58 -34.53691 -58.34030 3692 ft 254 kts 322°
2026-05-05 18:58 -34.52323 -58.35404 4512 ft 256 kts 316°
2026-05-05 18:58 -34.51011 -58.36870 5345 ft 256 kts 314°
2026-05-05 18:58 -34.49719 -58.38344 6260 ft 253 kts 314°
2026-05-05 18:59 -34.48436 -58.39790 7090 ft 252 kts 314°
2026-05-05 18:59 -34.47139 -58.41229 7783 ft 256 kts 314°
2026-05-05 18:59 -34.45803 -58.42694 8399 ft 261 kts 314°
2026-05-05 18:59 -34.44432 -58.44185 9003 ft 267 kts 315°
2026-05-05 19:00 -34.43028 -58.45699 9634 ft 273 kts 315°
2026-05-05 19:00 -34.41589 -58.47247 10167 ft 281 kts 315°
2026-05-05 19:00 -34.40070 -58.48883 10307 ft 304 kts 315°
2026-05-05 19:00 -34.38434 -58.50645 10426 ft 325 kts 315°
2026-05-05 19:01 -34.36692 -58.52516 10604 ft 343 kts 316°
2026-05-05 19:01 -34.34909 -58.54423 11066 ft 349 kts 316°
2026-05-05 19:01 -34.33078 -58.56371 11645 ft 352 kts 316°
2026-05-05 19:01 -34.31229 -58.58336 12259 ft 354 kts 316°
2026-05-05 19:02 -34.29378 -58.60305 12924 ft 355 kts 316°
2026-05-05 19:02 -34.27520 -58.62286 13542 ft 357 kts 316°
2026-05-05 19:02 -34.25652 -58.64280 14113 ft 359 kts 316°
2026-05-05 19:02 -34.23773 -58.66283 14684 ft 361 kts 316°
2026-05-05 19:03 -34.21889 -58.68288 15260 ft 362 kts 316°
2026-05-05 19:03 -34.19992 -58.70307 15827 ft 363 kts 316°
2026-05-05 19:03 -34.18095 -58.72323 16393 ft 364 kts 316°
2026-05-05 19:03 -34.16190 -58.74345 16946 ft 365 kts 316°
2026-05-05 19:04 -34.14276 -58.76377 17469 ft 367 kts 316°
2026-05-05 19:04 -34.12350 -58.78422 17940 ft 370 kts 316°
2026-05-05 19:04 -34.10414 -58.80481 18404 ft 372 kts 316°
2026-05-05 19:04 -34.08466 -58.82551 18845 ft 374 kts 316°
2026-05-05 19:05 -34.06532 -58.84603 19273 ft 376 kts 316°
2026-05-05 19:05 -34.04562 -58.86688 19711 ft 378 kts 316°
2026-05-05 19:05 -34.02583 -58.88780 20140 ft 380 kts 316°
2026-05-05 19:05 -34.00591 -58.90884 20550 ft 381 kts 316°
2026-05-05 19:06 -33.98591 -58.92994 20957 ft 383 kts 316°
2026-05-05 19:06 -33.96491 -58.94997 21333 ft 389 kts 323°
2026-05-05 19:06 -33.94171 -58.96708 21733 ft 392 kts 324°
2026-05-05 19:06 -33.91836 -58.98411 22135 ft 394 kts 324°
2026-05-05 19:07 -33.89483 -59.00131 22516 ft 396 kts 324°
2026-05-05 19:07 -33.87121 -59.01861 22899 ft 398 kts 324°
2026-05-05 19:07 -33.84744 -59.03598 23284 ft 400 kts 324°
2026-05-05 19:07 -33.82357 -59.05337 23606 ft 403 kts 324°
2026-05-05 19:08 -33.79952 -59.07088 23894 ft 405 kts 324°
2026-05-05 19:08 -33.77542 -59.08841 24179 ft 406 kts 324°
2026-05-05 19:08 -33.75117 -59.10605 24497 ft 407 kts 324°
2026-05-05 19:08 -33.72692 -59.12370 24806 ft 409 kts 324°
2026-05-05 19:09 -33.70250 -59.14144 25110 ft 410 kts 324°
2026-05-05 19:09 -33.67804 -59.15917 25407 ft 411 kts 324°
2026-05-05 19:09 -33.65349 -59.17695 25696 ft 413 kts 323°
2026-05-05 19:09 -33.62893 -59.19479 25996 ft 414 kts 323°
2026-05-05 19:10 -33.60424 -59.21274 26291 ft 415 kts 323°
2026-05-05 19:10 -33.57951 -59.23070 26553 ft 416 kts 323°
2026-05-05 19:10 -33.55467 -59.24870 26837 ft 417 kts 323°
2026-05-05 19:10 -33.53012 -59.26646 27100 ft 419 kts 323°
2026-05-05 19:11 -33.50516 -59.28450 27366 ft 420 kts 323°
2026-05-05 19:11 -33.48013 -59.30262 27620 ft 421 kts 323°
2026-05-05 19:11 -33.45502 -59.32081 27890 ft 422 kts 323°
2026-05-05 19:11 -33.42984 -59.33902 28122 ft 424 kts 323°
2026-05-05 19:12 -33.40454 -59.35730 28323 ft 425 kts 323°
2026-05-05 19:12 -33.37914 -59.37561 28583 ft 426 kts 323°
2026-05-05 19:12 -33.35372 -59.39390 28833 ft 427 kts 323°
2026-05-05 19:12 -33.32824 -59.41216 29135 ft 427 kts 323°
2026-05-05 19:13 -33.30282 -59.43032 29495 ft 425 kts 323°
2026-05-05 19:13 -33.27748 -59.44844 29849 ft 423 kts 322°
2026-05-05 19:13 -33.25226 -59.46653 30167 ft 422 kts 322°
2026-05-05 19:13 -33.22712 -59.48461 30446 ft 421 kts 322°
2026-05-05 19:14 -33.20205 -59.50265 30667 ft 421 kts 322°
2026-05-05 19:14 -33.17692 -59.52072 30897 ft 421 kts 322°
2026-05-05 19:14 -33.15182 -59.53876 31141 ft 421 kts 322°
2026-05-05 19:14 -33.12668 -59.55676 31395 ft 421 kts 322°
2026-05-05 19:15 -33.10158 -59.57473 31657 ft 420 kts 322°
2026-05-05 19:15 -33.07649 -59.59268 31919 ft 420 kts 322°
2026-05-05 19:15 -33.05143 -59.61056 32199 ft 419 kts 322°
2026-05-05 19:15 -33.02678 -59.62810 32477 ft 418 kts 322°
2026-05-05 19:16 -33.00180 -59.64588 32698 ft 417 kts 322°
2026-05-05 19:16 -32.97688 -59.66363 32929 ft 417 kts 322°
2026-05-05 19:16 -32.95196 -59.68137 33171 ft 417 kts 322°
2026-05-05 19:16 -32.92708 -59.69910 33419 ft 417 kts 322°
2026-05-05 19:17 -32.90225 -59.71681 33669 ft 416 kts 322°
2026-05-05 19:17 -32.87743 -59.73449 33911 ft 416 kts 322°
2026-05-05 19:17 -32.85258 -59.75213 34126 ft 416 kts 322°
2026-05-05 19:17 -32.82776 -59.76971 34333 ft 415 kts 322°
2026-05-05 19:18 -32.80292 -59.78732 34461 ft 416 kts 322°
2026-05-05 19:18 -32.77802 -59.80500 34616 ft 417 kts 321°
2026-05-05 19:18 -32.75300 -59.82275 34796 ft 417 kts 321°
2026-05-05 19:18 -32.72840 -59.84019 34975 ft 417 kts 321°
2026-05-05 19:19 -32.70346 -59.85785 35161 ft 417 kts 321°
2026-05-05 19:19 -32.67855 -59.87547 35341 ft 417 kts 321°
2026-05-05 19:19 -32.65362 -59.89307 35544 ft 416 kts 321°
2026-05-05 19:19 -32.62874 -59.91062 35740 ft 415 kts 321°
2026-05-05 19:20 -32.60386 -59.92816 35895 ft 415 kts 321°
2026-05-05 19:20 -32.57902 -59.94569 35935 ft 415 kts 321°
2026-05-05 19:20 -32.52944 -59.98068 35933 ft 415 kts 321°
2026-05-05 19:21 -32.47983 -60.01562 35931 ft 415 kts 321°
2026-05-05 19:21 -32.43028 -60.05052 35900 ft 415 kts 321°
2026-05-05 19:22 -32.38069 -60.08539 35926 ft 414 kts 321°
2026-05-05 19:22 -32.33113 -60.12019 35923 ft 414 kts 321°
2026-05-05 19:23 -32.28197 -60.15470 35921 ft 414 kts 321°
2026-05-05 19:23 -32.23248 -60.18937 35937 ft 414 kts 321°
2026-05-05 19:24 -32.18293 -60.22396 35912 ft 414 kts 321°
2026-05-05 19:24 -32.13341 -60.25857 35911 ft 413 kts 321°
2026-05-05 19:25 -32.08393 -60.29314 35908 ft 413 kts 321°
2026-05-05 19:25 -32.03440 -60.32765 35909 ft 413 kts 321°
2026-05-05 19:26 -31.98487 -60.36206 35889 ft 413 kts 320°
2026-05-05 19:26 -31.93530 -60.39641 35902 ft 413 kts 320°
2026-05-05 19:27 -31.88581 -60.43073 35911 ft 413 kts 320°
2026-05-05 19:27 -31.83637 -60.46509 35937 ft 413 kts 320°
2026-05-05 19:28 -31.78737 -60.49957 35923 ft 410 kts 319°
2026-05-05 19:28 -31.73964 -60.53603 35932 ft 408 kts 317°
2026-05-05 19:29 -31.69245 -60.57294 35926 ft 407 kts 317°
2026-05-05 19:29 -31.64505 -60.60937 35918 ft 407 kts 318°
2026-05-05 19:30 -31.59745 -60.64549 35882 ft 407 kts 317°
2026-05-05 19:30 -31.55782 -60.67540 35893 ft 407 kts 317°
2026-05-05 19:31 -31.50254 -60.71717 35901 ft 407 kts 317°
2026-05-05 19:31 -31.46279 -60.74733 35901 ft 406 kts 317°
2026-05-05 19:32 -31.41542 -60.78326 35873 ft 405 kts 317°
2026-05-05 19:32 -31.36840 -60.81881 35888 ft 404 kts 317°
2026-05-05 19:33 -31.32112 -60.85447 35885 ft 404 kts 317°
2026-05-05 19:33 -31.27394 -60.89004 35887 ft 403 kts 317°
2026-05-05 19:34 -31.22671 -60.92563 35888 ft 403 kts 317°
2026-05-05 19:35 -31.15602 -60.97882 35883 ft 403 kts 317°
2026-05-05 19:35 -31.10888 -61.01417 35888 ft 403 kts 317°
2026-05-05 19:36 -31.06170 -61.04951 35891 ft 402 kts 317°
2026-05-05 19:36 -31.01464 -61.08480 35884 ft 402 kts 317°
2026-05-05 19:37 -30.96759 -61.11991 35869 ft 401 kts 317°
2026-05-05 19:37 -30.92061 -61.15496 35876 ft 401 kts 317°
2026-05-05 19:38 -30.87396 -61.18972 35878 ft 401 kts 317°
2026-05-05 19:38 -30.82695 -61.22463 35876 ft 400 kts 317°
2026-05-05 19:39 -30.78013 -61.25944 35849 ft 400 kts 316°
2026-05-05 19:39 -30.73323 -61.29425 35866 ft 399 kts 316°
2026-05-05 19:40 -30.68646 -61.32894 35874 ft 399 kts 316°
2026-05-05 19:40 -30.63965 -61.36358 35881 ft 398 kts 317°
2026-05-05 19:41 -30.59295 -61.39812 35875 ft 398 kts 316°
2026-05-05 19:41 -30.54633 -61.43258 35871 ft 397 kts 317°
2026-05-05 19:42 -30.49965 -61.46697 35869 ft 397 kts 317°
2026-05-05 19:42 -30.45328 -61.50103 35866 ft 397 kts 317°
2026-05-05 19:43 -30.40634 -61.53558 35865 ft 397 kts 316°
2026-05-05 19:43 -30.35997 -61.56975 35840 ft 397 kts 316°
2026-05-05 19:44 -30.31330 -61.60403 35849 ft 397 kts 316°
2026-05-05 19:44 -30.26666 -61.63824 35855 ft 396 kts 316°
2026-05-05 19:45 -30.22011 -61.67242 35861 ft 396 kts 316°
2026-05-05 19:45 -30.17353 -61.70648 35865 ft 397 kts 316°
2026-05-05 19:46 -30.12689 -61.74054 35851 ft 396 kts 316°
2026-05-05 19:46 -30.08030 -61.77461 35860 ft 396 kts 316°
2026-05-05 19:47 -30.03373 -61.80858 35857 ft 396 kts 316°
2026-05-05 19:47 -29.98714 -61.84247 35857 ft 396 kts 316°
2026-05-05 19:48 -29.94050 -61.87642 35828 ft 396 kts 317°
2026-05-05 19:48 -29.89416 -61.91007 35834 ft 396 kts 317°
2026-05-05 19:49 -29.85194 -61.94853 35848 ft 381 kts 307°
2026-05-05 19:49 -29.81355 -61.99071 35854 ft 381 kts 307°
2026-05-05 19:50 -29.77512 -62.03283 35855 ft 381 kts 307°
2026-05-05 19:50 -29.73672 -62.07479 35829 ft 381 kts 307°
2026-05-05 19:51 -29.69819 -62.11680 35827 ft 381 kts 307°
2026-05-05 19:51 -29.65965 -62.15880 35828 ft 382 kts 307°
2026-05-05 19:52 -29.62130 -62.20054 35827 ft 382 kts 307°
2026-05-05 19:52 -29.58271 -62.24254 35832 ft 382 kts 307°
2026-05-05 19:53 -29.54411 -62.28446 35839 ft 382 kts 307°
2026-05-05 19:53 -29.50535 -62.32627 35816 ft 382 kts 308°
2026-05-05 19:54 -29.46666 -62.36818 35821 ft 383 kts 307°
2026-05-05 19:54 -29.42794 -62.41019 35822 ft 383 kts 307°
2026-05-05 19:55 -29.38909 -62.45227 35828 ft 384 kts 308°
2026-05-05 19:55 -29.35022 -62.49425 35833 ft 384 kts 308°
2026-05-05 19:56 -29.31134 -62.53625 35807 ft 384 kts 308°
2026-05-05 19:56 -29.27236 -62.57832 35812 ft 385 kts 308°
2026-05-05 19:57 -29.23358 -62.61999 35819 ft 385 kts 308°
2026-05-05 19:57 -29.19453 -62.66194 35822 ft 385 kts 308°
2026-05-05 19:58 -29.15551 -62.70389 35824 ft 385 kts 308°
2026-05-05 19:58 -29.11648 -62.74582 35799 ft 385 kts 308°
2026-05-05 19:59 -29.07740 -62.78777 35798 ft 385 kts 308°
2026-05-05 19:59 -29.03826 -62.82968 35806 ft 386 kts 308°
2026-05-05 20:00 -28.99904 -62.87158 35816 ft 386 kts 308°
2026-05-05 20:00 -28.95978 -62.91347 35828 ft 386 kts 308°
2026-05-05 20:01 -28.92063 -62.95532 35824 ft 385 kts 308°
2026-05-05 20:01 -28.88140 -62.99711 35804 ft 386 kts 308°
2026-05-05 20:02 -28.84216 -63.03899 35798 ft 386 kts 308°
2026-05-05 20:02 -28.80291 -63.08087 35802 ft 387 kts 308°
2026-05-05 20:03 -28.76355 -63.12269 35807 ft 387 kts 308°
2026-05-05 20:03 -28.72434 -63.16419 35811 ft 387 kts 308°
2026-05-05 20:04 -28.68493 -63.20590 35795 ft 387 kts 308°
2026-05-05 20:04 -28.64557 -63.24769 35800 ft 387 kts 308°
2026-05-05 20:05 -28.60617 -63.28940 35803 ft 387 kts 308°
2026-05-05 20:05 -28.56676 -63.33108 35802 ft 387 kts 308°
2026-05-05 20:06 -28.52732 -63.37267 35806 ft 387 kts 308°
2026-05-05 20:06 -28.48785 -63.41432 35809 ft 387 kts 308°
2026-05-05 20:07 -28.44835 -63.45584 35816 ft 387 kts 309°
2026-05-05 20:07 -28.40883 -63.49739 35820 ft 386 kts 309°
2026-05-05 20:08 -28.36943 -63.53890 35818 ft 386 kts 309°
2026-05-05 20:08 -28.33007 -63.58033 35817 ft 385 kts 309°
2026-05-05 20:09 -28.29092 -63.62138 35819 ft 385 kts 309°
2026-05-05 20:09 -28.25147 -63.66260 35803 ft 386 kts 309°
2026-05-05 20:10 -28.21205 -63.70388 35804 ft 386 kts 309°
2026-05-05 20:10 -28.17248 -63.74537 35807 ft 386 kts 309°
2026-05-05 20:11 -28.13323 -63.78644 35816 ft 386 kts 309°
2026-05-05 20:11 -28.09371 -63.82766 35820 ft 386 kts 309°
2026-05-05 20:12 -28.05419 -63.86883 35823 ft 386 kts 309°
2026-05-05 20:12 -28.01474 -63.91002 35800 ft 386 kts 309°
2026-05-05 20:13 -27.97524 -63.95141 35796 ft 387 kts 309°
2026-05-05 20:13 -27.93567 -63.99277 35807 ft 388 kts 309°
2026-05-05 20:14 -27.89601 -64.03420 35818 ft 388 kts 309°
2026-05-05 20:14 -27.85659 -64.07537 35841 ft 388 kts 309°
2026-05-05 20:15 -27.81690 -64.11670 35817 ft 388 kts 309°
2026-05-05 20:15 -27.77721 -64.15795 35822 ft 388 kts 309°
2026-05-05 20:16 -27.73748 -64.19921 35833 ft 388 kts 309°
2026-05-05 20:16 -27.69769 -64.24060 35839 ft 388 kts 309°
2026-05-05 20:17 -27.65789 -64.28200 35841 ft 389 kts 309°
2026-05-05 20:17 -27.62479 -64.31628 35841 ft 389 kts 309°
2026-05-05 20:18 -27.58492 -64.35749 35816 ft 389 kts 310°
2026-05-05 20:18 -27.54502 -64.39866 35837 ft 389 kts 310°
2026-05-05 20:19 -27.50518 -64.43989 35838 ft 388 kts 310°
2026-05-05 20:19 -27.46539 -64.48104 35835 ft 388 kts 310°
2026-05-05 20:20 -27.42558 -64.52206 35833 ft 388 kts 310°
2026-05-05 20:20 -27.38573 -64.56306 35834 ft 388 kts 310°
2026-05-05 20:21 -27.34612 -64.60382 35810 ft 388 kts 310°
2026-05-05 20:21 -27.30601 -64.64470 35814 ft 389 kts 310°
2026-05-05 20:22 -27.26562 -64.68549 35818 ft 389 kts 310°
2026-05-05 20:22 -27.22526 -64.72627 35821 ft 390 kts 310°
2026-05-05 20:23 -27.18525 -64.76680 35825 ft 390 kts 310°
2026-05-05 20:23 -27.14489 -64.80760 35801 ft 390 kts 310°
2026-05-05 20:24 -27.10449 -64.84832 35802 ft 390 kts 310°
2026-05-05 20:24 -27.06404 -64.88909 35818 ft 391 kts 310°
2026-05-05 20:25 -27.02351 -64.92980 35834 ft 391 kts 311°
2026-05-05 20:25 -26.98287 -64.97064 35848 ft 391 kts 310°
2026-05-05 20:26 -26.94233 -65.01142 35875 ft 391 kts 311°
2026-05-05 20:26 -26.90183 -65.05211 35855 ft 391 kts 311°
2026-05-05 20:27 -26.86156 -65.09250 35857 ft 391 kts 311°
2026-05-05 20:27 -26.82046 -65.13263 35860 ft 393 kts 313°
2026-05-05 20:28 -26.77787 -65.17136 35863 ft 394 kts 314°
2026-05-05 20:28 -26.73503 -65.20980 35864 ft 394 kts 314°
2026-05-05 20:29 -26.69251 -65.24848 35875 ft 394 kts 313°
2026-05-05 20:29 -26.65008 -65.28729 35860 ft 394 kts 313°
2026-05-05 20:30 -26.60754 -65.32616 35863 ft 395 kts 314°
2026-05-05 20:30 -26.56509 -65.36472 35895 ft 396 kts 314°
2026-05-05 20:31 -26.52225 -65.40359 35903 ft 396 kts 314°
2026-05-05 20:31 -26.47951 -65.44246 35912 ft 396 kts 314°
2026-05-05 20:32 -26.43674 -65.48131 35904 ft 396 kts 314°
2026-05-05 20:32 -26.39391 -65.52020 35926 ft 397 kts 314°
2026-05-05 20:33 -26.35104 -65.55905 35925 ft 397 kts 314°
2026-05-05 20:33 -26.30808 -65.59791 35925 ft 397 kts 314°
2026-05-05 20:34 -26.26541 -65.63654 35939 ft 397 kts 314°
2026-05-05 20:34 -26.22232 -65.67547 35936 ft 396 kts 314°
2026-05-05 20:35 -26.17984 -65.71380 35946 ft 395 kts 314°
2026-05-05 20:35 -26.13715 -65.75227 35953 ft 394 kts 314°
2026-05-05 20:36 -26.09457 -65.79062 35949 ft 393 kts 314°
2026-05-05 20:36 -26.05208 -65.82888 35946 ft 393 kts 314°
2026-05-05 20:37 -26.00958 -65.86707 35938 ft 392 kts 314°
2026-05-05 20:37 -25.96714 -65.90515 35959 ft 392 kts 314°
2026-05-05 20:38 -25.92467 -65.94319 35964 ft 392 kts 314°
2026-05-05 20:38 -25.88228 -65.98110 35965 ft 390 kts 314°
2026-05-05 20:39 -25.84007 -66.01894 35964 ft 389 kts 314°
2026-05-05 20:39 -25.79796 -66.05670 35960 ft 389 kts 314°
2026-05-05 20:40 -25.75587 -66.09431 35932 ft 388 kts 314°
2026-05-05 20:40 -25.71405 -66.13161 35921 ft 388 kts 314°
2026-05-05 20:41 -25.67193 -66.16923 35916 ft 389 kts 314°
2026-05-05 20:41 -25.62963 -66.20688 35910 ft 390 kts 314°
2026-05-05 20:42 -25.58724 -66.24466 35910 ft 392 kts 314°
2026-05-05 20:42 -25.54474 -66.28249 35948 ft 392 kts 315°
2026-05-05 20:43 -25.50218 -66.32034 35952 ft 392 kts 315°
2026-05-05 20:43 -25.45975 -66.35804 35948 ft 391 kts 315°
2026-05-05 20:44 -25.41727 -66.39575 35977 ft 391 kts 315°
2026-05-05 20:44 -25.37476 -66.43342 35978 ft 392 kts 315°
2026-05-05 20:45 -25.31112 -66.48979 35987 ft 392 kts 315°
2026-05-05 20:45 -25.26845 -66.52752 36056 ft 393 kts 315°
2026-05-05 20:46 -25.22563 -66.56536 36073 ft 395 kts 315°
2026-05-05 20:46 -25.18265 -66.60324 36046 ft 396 kts 315°
2026-05-05 20:47 -25.13957 -66.64107 36098 ft 396 kts 315°
2026-05-05 20:47 -25.09665 -66.67908 36104 ft 395 kts 315°
2026-05-05 20:48 -25.05372 -66.71703 36112 ft 396 kts 315°
2026-05-05 20:48 -25.01067 -66.75486 36112 ft 395 kts 316°
2026-05-05 20:49 -24.96763 -66.79256 36091 ft 395 kts 316°
2026-05-05 20:49 -24.92466 -66.83027 36091 ft 395 kts 315°
2026-05-05 20:50 -24.88191 -66.86773 36088 ft 395 kts 315°
2026-05-05 20:50 -24.83885 -66.90552 36055 ft 396 kts 316°
2026-05-05 20:51 -24.79570 -66.94333 36059 ft 397 kts 316°
2026-05-05 20:51 -24.75244 -66.98106 36059 ft 397 kts 316°
2026-05-05 20:52 -24.70913 -67.01884 36050 ft 398 kts 316°
2026-05-05 20:52 -24.66576 -67.05673 36044 ft 398 kts 316°
2026-05-05 20:53 -24.62233 -67.09462 36046 ft 398 kts 316°
2026-05-05 20:53 -24.57892 -67.13254 36051 ft 399 kts 316°
2026-05-05 20:54 -24.53536 -67.17040 36034 ft 399 kts 316°
2026-05-05 20:54 -24.49177 -67.20828 36035 ft 399 kts 316°
2026-05-05 20:55 -24.44824 -67.24620 36019 ft 400 kts 316°
2026-05-05 20:55 -24.40450 -67.28419 36024 ft 401 kts 317°
2026-05-05 20:56 -24.36067 -67.32216 36027 ft 401 kts 317°
2026-05-05 20:56 -24.31685 -67.36014 36044 ft 402 kts 316°
2026-05-05 20:57 -24.27316 -67.39798 36052 ft 403 kts 317°
2026-05-05 20:57 -24.22911 -67.43606 36083 ft 403 kts 317°
2026-05-05 20:58 -24.18508 -67.47413 36085 ft 404 kts 317°
2026-05-05 20:58 -24.14099 -67.51221 36123 ft 404 kts 317°
2026-05-05 20:59 -24.09681 -67.55029 36132 ft 404 kts 317°
2026-05-05 20:59 -24.05255 -67.58761 36151 ft 404 kts 317°
2026-05-05 21:00 -24.00785 -67.62511 36161 ft 404 kts 318°
2026-05-05 21:00 -23.96321 -67.66262 36167 ft 404 kts 317°
2026-05-05 21:01 -23.91862 -67.70008 36146 ft 404 kts 317°
2026-05-05 21:01 -23.87435 -67.73732 36130 ft 405 kts 317°
2026-05-05 21:02 -23.82968 -67.77486 36144 ft 405 kts 317°
2026-05-05 21:02 -23.78502 -67.81239 36080 ft 405 kts 317°
2026-05-05 21:03 -23.74034 -67.84988 36070 ft 405 kts 317°
2026-05-05 21:03 -23.69562 -67.88743 36059 ft 405 kts 317°
2026-05-05 21:04 -23.65848 -67.91845 36060 ft 405 kts 317°
2026-05-05 21:04 -23.61373 -67.95580 35964 ft 405 kts 317°
2026-05-05 21:05 -23.56902 -67.99316 35970 ft 405 kts 317°
2026-05-05 21:05 -23.52437 -68.03051 35979 ft 404 kts 317°
2026-05-05 21:06 -23.47968 -68.06787 35969 ft 405 kts 317°
2026-05-05 21:06 -23.43529 -68.10491 35973 ft 405 kts 317°
2026-05-05 21:07 -23.39055 -68.14222 35952 ft 405 kts 318°
2026-05-05 21:07 -23.34580 -68.17942 35956 ft 405 kts 318°
2026-05-05 21:08 -23.30096 -68.21665 35916 ft 405 kts 318°
2026-05-05 21:08 -23.25620 -68.25377 35918 ft 404 kts 318°
2026-05-05 21:09 -23.21152 -68.29086 35923 ft 404 kts 318°
2026-05-05 21:09 -23.16688 -68.32796 35935 ft 404 kts 318°
2026-05-05 21:10 -23.12240 -68.36481 35908 ft 405 kts 318°
2026-05-05 21:10 -23.07758 -68.40184 35921 ft 405 kts 318°
2026-05-05 21:11 -23.03267 -68.43898 35923 ft 406 kts 319°
2026-05-05 21:11 -22.98777 -68.47614 35948 ft 406 kts 319°
2026-05-05 21:12 -22.94278 -68.51332 35972 ft 406 kts 319°
2026-05-05 21:12 -22.89775 -68.55047 35980 ft 407 kts 318°
2026-05-05 21:13 -22.85271 -68.58753 35986 ft 406 kts 319°
2026-05-05 21:13 -22.80764 -68.62463 36009 ft 407 kts 319°
2026-05-05 21:14 -22.76255 -68.66178 36016 ft 407 kts 319°
2026-05-05 21:14 -22.71766 -68.69865 36016 ft 407 kts 319°
2026-05-05 21:15 -22.67245 -68.73574 36029 ft 407 kts 319°
2026-05-05 21:15 -22.62731 -68.77281 36031 ft 407 kts 319°
2026-05-05 21:16 -22.58222 -68.80984 36020 ft 407 kts 319°
2026-05-05 21:16 -22.53701 -68.84688 36021 ft 407 kts 319°
2026-05-05 21:17 -22.49190 -68.88399 36029 ft 407 kts 318°
2026-05-05 21:17 -22.44811 -68.92269 36034 ft 406 kts 316°
2026-05-05 21:18 -22.40504 -68.96213 36037 ft 406 kts 316°
2026-05-05 21:18 -22.36176 -69.00142 36022 ft 406 kts 316°
2026-05-05 21:19 -22.31824 -69.04050 36023 ft 407 kts 317°
2026-05-05 21:19 -22.27488 -69.07934 36019 ft 408 kts 317°
2026-05-05 21:20 -22.23115 -69.11841 36023 ft 408 kts 317°
2026-05-05 21:20 -22.18735 -69.15751 36011 ft 409 kts 317°
2026-05-05 21:21 -22.14349 -69.19669 36020 ft 409 kts 317°
2026-05-05 21:21 -22.09963 -69.23577 36030 ft 409 kts 317°
2026-05-05 21:22 -22.05581 -69.27486 35979 ft 409 kts 317°
2026-05-05 21:22 -22.01204 -69.31398 35975 ft 409 kts 317°
2026-05-05 21:23 -21.96816 -69.35307 35971 ft 409 kts 317°
2026-05-05 21:23 -21.92416 -69.39212 35972 ft 410 kts 317°
2026-05-05 21:24 -21.88034 -69.43101 35942 ft 410 kts 317°
2026-05-05 21:24 -21.83633 -69.47016 35946 ft 411 kts 317°
2026-05-05 21:25 -21.79217 -69.50935 35950 ft 411 kts 317°
2026-05-05 21:25 -21.74804 -69.54844 35937 ft 411 kts 317°
2026-05-05 21:26 -21.70384 -69.58765 35946 ft 412 kts 317°
2026-05-05 21:26 -21.65970 -69.62683 35949 ft 412 kts 317°
2026-05-05 21:27 -21.61540 -69.66597 35962 ft 412 kts 317°
2026-05-05 21:27 -21.57117 -69.70502 35963 ft 411 kts 317°
2026-05-05 21:28 -21.52698 -69.74408 35965 ft 411 kts 318°
2026-05-05 21:28 -21.48271 -69.78306 35949 ft 412 kts 318°
2026-05-05 21:29 -21.43836 -69.82215 35955 ft 412 kts 318°
2026-05-05 21:29 -21.39398 -69.86129 35954 ft 413 kts 318°
2026-05-05 21:30 -21.34961 -69.90035 35961 ft 412 kts 318°
2026-05-05 21:30 -21.30525 -69.93933 35977 ft 412 kts 318°
2026-05-05 21:31 -21.26087 -69.97826 35981 ft 412 kts 318°
2026-05-05 21:31 -21.21677 -70.01694 35966 ft 412 kts 318°
2026-05-05 21:32 -21.17232 -70.05596 35964 ft 413 kts 318°
2026-05-05 21:32 -21.12782 -70.09500 35968 ft 413 kts 318°
2026-05-05 21:33 -21.08337 -70.13394 35971 ft 413 kts 318°
2026-05-05 21:33 -21.03888 -70.17292 35970 ft 413 kts 318°
2026-05-05 21:34 -20.99435 -70.21185 35973 ft 413 kts 318°
2026-05-05 21:34 -20.94974 -70.25079 35983 ft 413 kts 318°
2026-05-05 21:35 -20.90522 -70.28965 35982 ft 413 kts 318°
2026-05-05 21:35 -20.86074 -70.32846 35985 ft 413 kts 318°
2026-05-05 21:36 -20.81623 -70.36721 35985 ft 413 kts 318°
2026-05-05 21:36 -20.77160 -70.40607 35977 ft 413 kts 318°
2026-05-05 21:37 -20.72708 -70.44484 35973 ft 412 kts 318°
2026-05-05 21:37 -20.68259 -70.48352 35981 ft 413 kts 319°
2026-05-05 21:38 -20.63831 -70.52193 35961 ft 413 kts 319°
2026-05-05 21:38 -20.59368 -70.56063 35973 ft 413 kts 319°
2026-05-05 21:39 -20.54908 -70.59941 35979 ft 413 kts 319°
2026-05-05 21:39 -20.50441 -70.63815 35986 ft 413 kts 319°
2026-05-05 21:40 -20.45981 -70.67680 35987 ft 413 kts 319°
2026-05-05 21:40 -20.41525 -70.71541 35983 ft 413 kts 319°
2026-05-05 21:41 -20.37071 -70.75409 35972 ft 413 kts 319°
2026-05-05 21:41 -20.32608 -70.79268 35971 ft 414 kts 319°
2026-05-05 21:42 -20.28134 -70.83129 35971 ft 414 kts 319°
2026-05-05 21:42 -20.23656 -70.86999 35977 ft 415 kts 319°
2026-05-05 21:43 -20.19171 -70.90862 35981 ft 414 kts 319°
2026-05-05 21:43 -20.14685 -70.94719 35990 ft 414 kts 319°
2026-05-05 21:44 -20.10209 -70.98576 35995 ft 413 kts 319°
2026-05-05 21:44 -20.05768 -71.02401 35991 ft 413 kts 319°
2026-05-05 21:45 -20.01278 -71.06255 35988 ft 414 kts 319°
2026-05-05 21:45 -19.96797 -71.10104 35988 ft 414 kts 319°
2026-05-05 21:46 -19.92315 -71.13957 35988 ft 414 kts 319°
2026-05-05 21:46 -19.87835 -71.17799 35988 ft 414 kts 319°
2026-05-05 21:47 -19.83368 -71.21618 35988 ft 414 kts 319°
2026-05-05 21:47 -19.78884 -71.25468 35977 ft 414 kts 319°
2026-05-05 21:48 -19.74394 -71.29308 35981 ft 415 kts 319°
2026-05-05 21:48 -19.69890 -71.33148 35985 ft 415 kts 319°
2026-05-05 21:49 -19.66146 -71.36347 35985 ft 415 kts 319°
2026-05-05 21:49 -19.61645 -71.40194 35988 ft 415 kts 319°
2026-05-05 21:50 -19.57146 -71.44042 35996 ft 415 kts 319°
2026-05-05 21:50 -19.52645 -71.47882 35995 ft 415 kts 319°
2026-05-05 21:51 -19.48137 -71.51716 35986 ft 416 kts 319°
2026-05-05 21:51 -19.43620 -71.55551 35988 ft 416 kts 319°
2026-05-05 21:52 -19.36858 -71.61304 35996 ft 415 kts 319°
2026-05-05 21:53 -19.32356 -71.65137 35995 ft 415 kts 319°
2026-05-05 21:53 -19.27859 -71.68959 35992 ft 414 kts 319°
2026-05-05 21:54 -19.23359 -71.72773 35989 ft 414 kts 319°
2026-05-05 21:54 -19.18881 -71.76569 35982 ft 415 kts 320°
2026-05-05 21:55 -19.14373 -71.80393 35983 ft 415 kts 320°
2026-05-05 21:55 -19.09857 -71.84212 35985 ft 416 kts 320°
2026-05-05 21:56 -19.05330 -71.88036 35988 ft 416 kts 320°
2026-05-05 21:56 -19.00807 -71.91858 35995 ft 416 kts 320°
2026-05-05 21:57 -18.96282 -71.95692 35996 ft 416 kts 319°
2026-05-05 21:57 -18.91774 -71.99509 35995 ft 415 kts 320°
2026-05-05 21:58 -18.87282 -72.03294 35988 ft 415 kts 320°
2026-05-05 21:58 -18.82766 -72.07095 35985 ft 415 kts 320°
2026-05-05 21:59 -18.78252 -72.10905 35984 ft 415 kts 320°
2026-05-05 21:59 -18.73731 -72.14712 35984 ft 415 kts 320°
2026-05-05 22:00 -18.69204 -72.18510 35983 ft 416 kts 320°
2026-05-05 22:00 -18.64674 -72.22320 35986 ft 416 kts 320°
2026-05-05 22:01 -18.60145 -72.26131 35995 ft 416 kts 320°
2026-05-05 22:01 -18.55644 -72.29910 35985 ft 416 kts 320°
2026-05-05 22:02 -18.51113 -72.33709 35986 ft 416 kts 320°
2026-05-05 22:02 -18.46583 -72.37507 35986 ft 416 kts 320°
2026-05-05 22:03 -18.42051 -72.41309 35983 ft 416 kts 320°
2026-05-05 22:03 -18.37517 -72.45105 35987 ft 417 kts 320°
2026-05-05 22:04 -18.32982 -72.48898 35991 ft 417 kts 320°
2026-05-05 22:04 -18.28437 -72.52703 35990 ft 417 kts 320°
2026-05-05 22:05 -18.23887 -72.56503 35989 ft 417 kts 320°
2026-05-05 22:05 -18.19339 -72.60307 35993 ft 418 kts 320°
2026-05-05 22:06 -18.14773 -72.64119 35999 ft 418 kts 320°
2026-05-05 22:06 -18.10212 -72.67923 36003 ft 419 kts 320°
2026-05-05 22:07 -18.05654 -72.71731 36003 ft 419 kts 320°
2026-05-05 22:07 -18.01092 -72.75531 36004 ft 418 kts 320°
2026-05-05 22:08 -17.96528 -72.79319 36002 ft 418 kts 320°
2026-05-05 22:08 -17.91975 -72.83122 36004 ft 418 kts 320°
2026-05-05 22:09 -17.87423 -72.86922 36005 ft 418 kts 320°
2026-05-05 22:09 -17.82890 -72.90681 36005 ft 418 kts 320°
2026-05-05 22:10 -17.78328 -72.94465 36003 ft 418 kts 320°
2026-05-05 22:10 -17.73768 -72.98249 36009 ft 418 kts 320°
2026-05-05 22:11 -17.69211 -73.02039 36014 ft 417 kts 320°
2026-05-05 22:11 -17.64657 -73.05824 36002 ft 418 kts 321°
2026-05-05 22:12 -17.60090 -73.09597 35999 ft 418 kts 321°
2026-05-05 22:12 -17.55523 -73.13375 35998 ft 418 kts 320°
2026-05-05 22:13 -17.50966 -73.17161 35998 ft 418 kts 321°
2026-05-05 22:13 -17.46395 -73.20933 35998 ft 418 kts 321°
2026-05-05 22:14 -17.41847 -73.24672 35996 ft 418 kts 321°
2026-05-05 22:14 -17.37276 -73.28443 35990 ft 418 kts 321°
2026-05-05 22:15 -17.32706 -73.32224 35991 ft 419 kts 321°
2026-05-05 22:15 -17.28132 -73.36000 35993 ft 419 kts 321°
2026-05-05 22:16 -17.23556 -73.39774 35995 ft 419 kts 321°
2026-05-05 22:16 -17.18980 -73.43551 35995 ft 419 kts 321°
2026-05-05 22:17 -17.14395 -73.47321 35997 ft 419 kts 321°
2026-05-05 22:17 -17.09842 -73.51057 35996 ft 419 kts 321°
2026-05-05 22:18 -17.05263 -73.54820 35987 ft 419 kts 321°
2026-05-05 22:18 -17.00679 -73.58586 35984 ft 419 kts 321°
2026-05-05 22:19 -16.96084 -73.62354 35980 ft 420 kts 321°
2026-05-05 22:19 -16.91488 -73.66129 35989 ft 420 kts 321°
2026-05-05 22:20 -16.86890 -73.69904 35994 ft 420 kts 321°
2026-05-05 22:20 -16.82276 -73.73678 35998 ft 421 kts 321°
2026-05-05 22:21 -16.77676 -73.77451 36003 ft 421 kts 321°
2026-05-05 22:21 -16.73066 -73.81228 35998 ft 420 kts 321°
2026-05-05 22:22 -16.68486 -73.84961 35989 ft 421 kts 321°
2026-05-05 22:22 -16.63871 -73.88726 35986 ft 421 kts 321°
2026-05-05 22:23 -16.59265 -73.92503 35986 ft 421 kts 321°
2026-05-05 22:23 -16.54648 -73.96270 35985 ft 422 kts 321°
2026-05-05 22:24 -16.50023 -74.00039 35986 ft 422 kts 321°
2026-05-05 22:24 -16.45397 -74.03804 35993 ft 422 kts 321°
2026-05-05 22:25 -16.40780 -74.07573 35989 ft 422 kts 322°
2026-05-05 22:25 -16.36153 -74.11337 35984 ft 422 kts 322°
2026-05-05 22:26 -16.31512 -74.15111 35984 ft 423 kts 322°
2026-05-05 22:26 -16.26874 -74.18883 35987 ft 423 kts 322°
2026-05-05 22:27 -16.22228 -74.22655 35989 ft 423 kts 322°
2026-05-05 22:27 -16.17577 -74.26420 35992 ft 424 kts 322°
2026-05-05 22:28 -16.12957 -74.30171 35994 ft 424 kts 322°
2026-05-05 22:28 -16.08313 -74.33940 35977 ft 424 kts 322°
2026-05-05 22:29 -16.03639 -74.37731 35984 ft 425 kts 322°
2026-05-05 22:29 -15.98976 -74.41511 35987 ft 425 kts 322°
2026-05-05 22:30 -15.94303 -74.45290 35989 ft 425 kts 322°
2026-05-05 22:30 -15.89630 -74.49067 36000 ft 425 kts 322°
2026-05-05 22:31 -15.84961 -74.52842 36002 ft 425 kts 322°
2026-05-05 22:31 -15.80307 -74.56599 36002 ft 425 kts 322°
2026-05-05 22:32 -15.75639 -74.60376 35991 ft 426 kts 322°
2026-05-05 22:32 -15.70946 -74.64159 35987 ft 428 kts 322°
2026-05-05 22:33 -15.66243 -74.67951 35984 ft 428 kts 322°
2026-05-05 22:33 -15.61533 -74.71752 35996 ft 429 kts 322°
2026-05-05 22:34 -15.56817 -74.75549 36001 ft 429 kts 322°
2026-05-05 22:34 -15.52883 -74.78710 36006 ft 430 kts 322°
2026-05-05 22:35 -15.48153 -74.82521 36011 ft 430 kts 322°
2026-05-05 22:35 -15.43429 -74.86317 36008 ft 430 kts 322°
2026-05-05 22:36 -15.38698 -74.90121 36021 ft 430 kts 322°
2026-05-05 22:36 -15.33968 -74.93923 36023 ft 430 kts 322°
2026-05-05 22:37 -15.29242 -74.97717 36027 ft 430 kts 322°
2026-05-05 22:37 -15.24517 -75.01512 36035 ft 430 kts 322°
2026-05-05 22:38 -15.19785 -75.05299 36035 ft 430 kts 322°
2026-05-05 22:38 -15.15083 -75.09059 36024 ft 430 kts 322°
2026-05-05 22:39 -15.10350 -75.12850 36024 ft 430 kts 322°
2026-05-05 22:39 -15.05612 -75.16642 36025 ft 431 kts 322°
2026-05-05 22:40 -15.00864 -75.20445 36033 ft 431 kts 322°
2026-05-05 22:40 -14.96112 -75.24247 36021 ft 431 kts 322°
2026-05-05 22:41 -14.91364 -75.28052 36025 ft 431 kts 322°
2026-05-05 22:41 -14.86612 -75.31843 36030 ft 432 kts 322°
2026-05-05 22:42 -14.81852 -75.35632 36026 ft 432 kts 322°
2026-05-05 22:42 -14.77107 -75.39413 36028 ft 432 kts 322°
2026-05-05 22:43 -14.72352 -75.43218 36040 ft 432 kts 322°
2026-05-05 22:43 -14.67603 -75.47015 36043 ft 432 kts 322°
2026-05-05 22:44 -14.62849 -75.50802 36039 ft 431 kts 322°
2026-05-05 22:44 -14.58098 -75.54581 36037 ft 431 kts 322°
2026-05-05 22:45 -14.53355 -75.58357 36038 ft 430 kts 322°
2026-05-05 22:45 -14.48610 -75.62126 36040 ft 430 kts 322°
2026-05-05 22:46 -14.43862 -75.65893 36016 ft 431 kts 322°
2026-05-05 22:46 -14.39107 -75.69663 36012 ft 431 kts 322°
2026-05-05 22:47 -14.34385 -75.73415 36012 ft 431 kts 322°
2026-05-05 22:47 -14.29629 -75.77191 36013 ft 431 kts 322°
2026-05-05 22:48 -14.24869 -75.80961 35999 ft 431 kts 322°
2026-05-05 22:48 -14.20108 -75.84733 36002 ft 431 kts 322°
2026-05-05 22:49 -14.15354 -75.88494 36008 ft 431 kts 322°
2026-05-05 22:49 -14.10597 -75.92257 35993 ft 431 kts 322°
2026-05-05 22:50 -14.05838 -75.96026 35963 ft 432 kts 322°
2026-05-05 22:50 -14.01072 -75.99801 35962 ft 432 kts 322°
2026-05-05 22:51 -13.96293 -76.03576 35959 ft 432 kts 322°
2026-05-05 22:51 -13.91540 -76.07317 35937 ft 432 kts 322°
2026-05-05 22:52 -13.86760 -76.11075 35935 ft 432 kts 322°
2026-05-05 22:52 -13.81988 -76.14844 35937 ft 432 kts 322°
2026-05-05 22:53 -13.77220 -76.18612 35930 ft 432 kts 322°
2026-05-05 22:53 -13.72360 -76.22228 35926 ft 431 kts 328°
2026-05-05 22:54 -13.67259 -76.25483 35921 ft 431 kts 328°
2026-05-05 22:54 -13.62165 -76.28747 35921 ft 431 kts 328°
2026-05-05 22:55 -13.57072 -76.32009 35923 ft 431 kts 328°
2026-05-05 22:55 -13.51974 -76.35267 35930 ft 432 kts 328°
2026-05-05 22:56 -13.46863 -76.38524 35923 ft 432 kts 328°
2026-05-05 22:56 -13.41758 -76.41777 35922 ft 432 kts 328°
2026-05-05 22:57 -13.36640 -76.45050 35923 ft 433 kts 328°
2026-05-05 22:57 -13.31520 -76.48320 35925 ft 433 kts 328°
2026-05-05 22:58 -13.26389 -76.51581 35718 ft 434 kts 328°
2026-05-05 22:58 -13.23820 -76.53210 35480 ft 433 kts 328°
2026-05-05 22:58 -13.21253 -76.54842 34754 ft 437 kts 328°
2026-05-05 22:58 -13.18660 -76.56493 33895 ft 441 kts 328°
2026-05-05 22:59 -13.16043 -76.58159 32920 ft 445 kts 328°
2026-05-05 22:59 -13.13400 -76.59845 31939 ft 449 kts 329°
2026-05-05 22:59 -13.10756 -76.61530 30967 ft 454 kts 329°
2026-05-05 22:59 -13.08025 -76.63265 30161 ft 456 kts 329°
2026-05-05 23:00 -13.02786 -76.66599 29783 ft 428 kts 329°
2026-05-05 23:00 -13.00298 -76.68185 29663 ft 417 kts 329°
2026-05-05 23:00 -12.97819 -76.69760 29155 ft 420 kts 329°
2026-05-05 23:01 -12.95341 -76.71332 28537 ft 417 kts 329°
2026-05-05 23:01 -12.92915 -76.72875 27940 ft 415 kts 329°
2026-05-05 23:01 -12.90466 -76.74431 27347 ft 413 kts 329°
2026-05-05 23:01 -12.88030 -76.75976 26756 ft 411 kts 329°
2026-05-05 23:02 -12.85603 -76.77516 26164 ft 409 kts 329°
2026-05-05 23:02 -12.83186 -76.79047 25584 ft 407 kts 329°
2026-05-05 23:02 -12.80779 -76.80572 25014 ft 406 kts 329°
2026-05-05 23:02 -12.78382 -76.82091 24439 ft 405 kts 329°
2026-05-05 23:03 -12.75991 -76.83608 23870 ft 404 kts 329°
2026-05-05 23:03 -12.73609 -76.85121 23285 ft 402 kts 329°
2026-05-05 23:03 -12.71238 -76.86626 22712 ft 399 kts 329°
2026-05-05 23:03 -12.68890 -76.88117 22218 ft 394 kts 329°
2026-05-05 23:04 -12.66569 -76.89591 21725 ft 391 kts 329°
2026-05-05 23:04 -12.64272 -76.91047 21278 ft 386 kts 329°
2026-05-05 23:04 -12.61995 -76.92486 20815 ft 383 kts 329°
2026-05-05 23:04 -12.59731 -76.93916 20366 ft 380 kts 330°
2026-05-05 23:05 -12.57474 -76.95300 19898 ft 377 kts 334°
2026-05-05 23:05 -12.55085 -76.96503 19294 ft 388 kts 335°
2026-05-05 23:05 -12.52644 -76.97714 18678 ft 389 kts 336°
2026-05-05 23:05 -12.50200 -76.98926 18091 ft 390 kts 336°
2026-05-05 23:06 -12.47766 -77.00136 17533 ft 388 kts 336°
2026-05-05 23:06 -12.45340 -77.01341 16977 ft 386 kts 335°
2026-05-05 23:06 -12.42929 -77.02541 16440 ft 385 kts 335°
2026-05-05 23:06 -12.40527 -77.03736 15912 ft 383 kts 335°
2026-05-05 23:07 -12.38162 -77.04910 15404 ft 382 kts 335°
2026-05-05 23:07 -12.35777 -77.06094 14892 ft 381 kts 335°
2026-05-05 23:07 -12.33400 -77.07277 14394 ft 379 kts 334°
2026-05-05 23:07 -12.31032 -77.08455 13899 ft 378 kts 334°
2026-05-05 23:08 -12.28669 -77.09629 13365 ft 377 kts 334°
2026-05-05 23:08 -12.26316 -77.10796 12817 ft 375 kts 334°
2026-05-05 23:08 -12.23985 -77.11951 12263 ft 366 kts 334°
2026-05-05 23:08 -12.21740 -77.13063 11739 ft 350 kts 334°
2026-05-05 23:09 -12.19593 -77.14126 11233 ft 336 kts 334°
2026-05-05 23:09 -12.17527 -77.15149 10751 ft 324 kts 334°
2026-05-05 23:09 -12.15534 -77.16137 10265 ft 313 kts 334°
2026-05-05 23:09 -12.13607 -77.17094 9794 ft 303 kts 334°
2026-05-05 23:10 -12.11732 -77.18025 9261 ft 295 kts 334°
2026-05-05 23:10 -12.09913 -77.18927 8748 ft 287 kts 334°
2026-05-05 23:10 -12.08135 -77.19810 8230 ft 281 kts 334°
2026-05-05 23:10 -12.06399 -77.20669 7760 ft 273 kts 334°
2026-05-05 23:11 -12.04719 -77.21501 7411 ft 264 kts 334°
2026-05-05 23:11 -12.03078 -77.22315 7064 ft 260 kts 334°
2026-05-05 23:11 -12.01480 -77.23109 6721 ft 251 kts 334°
2026-05-05 23:11 -11.99933 -77.23898 6370 ft 246 kts 333°
2026-05-05 23:12 -11.98417 -77.24689 5993 ft 244 kts 333°
2026-05-05 23:12 -11.96916 -77.25475 5594 ft 241 kts 333°
2026-05-05 23:12 -11.95438 -77.26250 5227 ft 237 kts 333°
2026-05-05 23:12 -11.93979 -77.27013 4863 ft 235 kts 333°
2026-05-05 23:13 -11.92530 -77.27767 4493 ft 233 kts 335°
2026-05-05 23:13 -11.90998 -77.28161 4124 ft 231 kts
2026-05-05 23:13 -11.89486 -77.27698 3746 ft 229 kts 34°
2026-05-05 23:13 -11.88473 -77.26491 3439 ft 223 kts 61°
2026-05-05 23:14 -11.87828 -77.25069 3133 ft 217 kts 66°
2026-05-05 23:14 -11.87254 -77.23674 2923 ft 208 kts 66°
2026-05-05 23:14 -11.86948 -77.22264 2705 ft 200 kts 91°
2026-05-05 23:14 -11.87269 -77.20917 2476 ft 194 kts 116°
2026-05-05 23:15 -11.88040 -77.19814 2281 ft 190 kts 136°
2026-05-05 23:15 -11.89115 -77.19068 2071 ft 186 kts 155°
2026-05-05 23:15 -11.90271 -77.18502 1908 ft 183 kts 155°
2026-05-05 23:15 -11.91394 -77.17949 1789 ft 180 kts 155°
2026-05-05 23:16 -11.92518 -77.17396 1717 ft 178 kts 155°
2026-05-05 23:16 -11.93603 -77.16860 1632 ft 169 kts 156°
2026-05-05 23:16 -11.94644 -77.16348 1454 ft 164 kts 156°
2026-05-05 23:16 -11.95661 -77.15846 1287 ft 152 kts 156°
2026-05-05 23:17 -11.96572 -77.15397 1067 ft 143 kts 156°
2026-05-05 23:17 -11.97457 -77.14960 873 ft 140 kts 156°
2026-05-05 23:17 -11.98325 -77.14532 685 ft 138 kts 156°
2026-05-05 23:17 -11.99185 -77.14108 508 ft 137 kts 155°
2026-05-05 23:18 -12.00043 -77.13685 330 ft 137 kts 155°
2026-05-05 23:18 -12.00892 -77.13267 161 ft 134 kts 155°
2026-05-05 23:18 -12.01722 -77.12854 48 ft 126 kts 156°
2026-05-05 23:18 -12.02377 -77.12533 45 ft 68 kts 154°
2026-05-05 23:19 -12.02633 -77.12397 51 ft 30 kts 139°
2026-05-05 23:19 -12.02729 -77.12294 55 ft 14 kts 129°
2026-05-05 23:19 -12.02779 -77.12222 55 ft 11 kts 124°
2026-05-05 23:19 -12.02806 -77.12182 57 ft 9 kts 124°
2026-05-05 23:20 -12.02839 -77.12138 61 ft 8 kts 133°
2026-05-05 23:20 -12.02903 -77.12098 60 ft 14 kts 154°
2026-05-05 23:20 -12.02945 -77.12034 65 ft 10 kts 59°
2026-05-05 23:20 -12.02899 -77.12005 64 ft 7 kts 37°
2026-05-05 23:21 -12.02871 -77.11957 71 ft 9 kts 63°
2026-05-05 23:21 -12.02836 -77.11901 82 ft 10 kts 39°
2026-05-05 23:21 -12.02798 -77.11856 81 ft 7 kts 66°
2026-05-05 23:21 -12.02794 -77.11847 81 ft 0 kts 65°
2026-05-05 23:22 -12.02791 -77.11842 83 ft 3 kts 64°
2026-05-05 23:22 -12.02781 -77.11821 84 ft 3 kts 64°
2026-05-05 23:22 -12.02777 -77.11812 82 ft 0 kts 64°